STARLINK-5201, 54076

Orbit data source: Space-Track

STARLINK-5201, 54076 is a payload satellite owned by SpaceX/Seattle (US) in LEO that was launched on Thu, 20 Oct 2022 UTC via an FALCON 9 launch vehicle from the Air Force Eastern Test Range (AFETR). Payload-class satellites include a variety of spacecraft equipped with specific instruments for various scientific and technological missions. These include communications satellites like Starlink; space stations such as the ISS; scientific satellites like the Hubble; Earth observation satellites from companies like Planet Labs, Umbra, and HawkEye 360; GPS; miniature CubeSats for education and research; and military/defense satellites.

Loading next visibility...
Identifier
54076, 2022-136AB
Orbit
LEO
Country
Flag of USUS
Related business
Manufacturer
SpaceX/Seattle
Mission
Operational Commercial Communications
Bus & Motor
STARLINK, Unknown motor
Mass
305 kg wet, ~290 kg dry
Launch date (UTC)
2022-10-20 (3 years ago)
Launch vehicle
FALCON 9
Launch site
Air Force Eastern Test Range (AFETR)
Object type
Payload
Rocket body
Debris
Shape & HBR
Box + 1 Pan, 4.4 m
Radar Cross Section
13.562 m², Large (>1 m²)

Expand to show TLE details & history
Last TLE update: 21 hours ago

TLE from 21 hours ago
0 STARLINK-5201
1 54076U 22136AB  25260.62254209 -.00001133  00000-0 -53138-4 0  9995
2 54076  53.2189  41.2532 0001392  94.2155 265.8996 15.08837853160718
Epoch: 2025-09-17T14:56Z
TLE epoch observation values (Epoch: 2025-09-17T14:56:27.636Z)
Latitude
-0.00005°
Longitude
-179.65783°
Altitude
540.717 km
Speed
7.593 km/s
True Right ascension
02h 45m 00s
True Declination
0° 00' 00"
Sunlit
Object was in full shadow at epoch
Visualization orbit readout
Latitude
Unknown
Longitude
Unknown
Altitude
Unknown
Speed
Unknown
Apparent Right ascension
Unknown
Apparent Declination
Unknown
Sunlit
N/A
Visualization observer readout
Local Sidereal Time
05:01:19
Azimuth
Unknown
Elevation
Unknown
Doppler factor
Unknown
Orbital elements
Apogee altitude
540.958 km
Perigee altitude
539.032 km
Semi-major axis
6,918.132 km
Eccentricity
0.00014
Inclination
53.2189°
RAAN
41.2532°
Arg. of periapsis
94.2155°
True anomaly
265.88369°
Mean anomaly
265.8996°
Eccentric anomaly
265.89164°
Mean motion
3.7719 °/min
Orbital period
95.44 mins
BSTAR
-0.000053138
Loading maneuver chart data...
Computing Atmospheric mass density...
Loading historical data...
Loading historical data...
Loading historical data...
Loading historical data...
Loading historical data...
Loading historical data...
Loading historical data...

Documentation

Showing up to 5 results
|